sat.trackr.live / text

‹ back to catalog

EUTELSAT 21B

NORAD 38992 · 2012-062B

PAYLOAD ACTIVE UNKNOWN

§ Identity

Operator
Country
EUTE
Launch date
2012-11-10
Launch site
FRGUI
Launch vehicle
Mass (kg)
RCS (m²)
5.15

Purposes: comms

External: N2YO · Heavens-Above · Gunter

§ Orbital elements

Epoch: 2026-09-20T01:37:39.017280Z

Period
1,436.08 min
Inclination
0.0697°
Eccentricity
0.0002912
Mean motion
1.00273061 rev/d
Perigee alt
35,774.0 km
Apogee alt
35,798.5 km
Semi-major
42,164.4 km
B*
0.0000e+0
RAAN
2.0276°
Arg perigee
174.0799°
Mean anomaly
228.8719°
Rev number
5,077

§ Raw data

EUTELSAT 21B1 38992U 12062B   26263.06781270  .00000126  00000+0  00000+0 0  99992 38992   0.0697   2.0276 0002912 174.0799 228.8719  1.00273061 50779

JSON: /api/v1/satellites/38992 · /tle

For live sub-satellite position, see the globe view (requires WebGL).

§ Visibility from observer

Set your observer location to see the next 7 days of passes ≥ 10°. The values pass through the URL so the page stays shareable.

No JS? Fill the form by hand. The geolocation button needs JavaScript.